owner,sensor,date,latitude,longitude,vertical_datum,mass_concentration_of_oxygen_in_sea_water,qcFlag 
DISL,ioos:station:DISL:MHPA:1,2011-12-01T00:00:00Z,30.6671,-87.9365,2.904,8.82,1111122 
DISL,ioos:station:DISL:MHPA:1,2011-12-01T00:30:00Z,30.6671,-87.9365,3.005,8.56,1111122 
DISL,ioos:station:DISL:MHPA:1,2011-12-01T01:00:00Z,30.6671,-87.9365,3.098,8.49,1111122 
DISL,ioos:station:DISL:MHPA:1,2011-12-01T01:30:00Z,30.6671,-87.9365,3.141,8.5,1111122 
DISL,ioos:station:DISL:MHPA:1,2011-12-01T02:00:00Z,30.6671,-87.9365,3.199,8.53,1111122 
DISL,ioos:station:DISL:MHPA:1,2011-12-01T02:30:00Z,30.6671,-87.9365,3.26,9.24,1111122 
DISL,ioos:station:DISL:MHPA:1,2011-12-01T03:00:00Z,30.6671,-87.9365,3.284,9.44,1111122 
DISL,ioos:station:DISL:MHPA:1,2011-12-01T03:30:00Z,30.6671,-87.9365,3.319,9.51,1111122 
DISL,ioos:station:DISL:MHPA:1,2011-12-01T04:00:00Z,30.6671,-87.9365,3.354,9.35,1111122 
DISL,ioos:station:DISL:MHPA:1,2011-12-01T04:30:00Z,30.6671,-87.9365,3.367,9.41,1111122 
DISL,ioos:station:DISL:MHPA:1,2011-12-01T05:00:00Z,30.6671,-87.9365,3.385,9.41,1111122 
DISL,ioos:station:DISL:MHPA:1,2011-12-01T05:30:00Z,30.6671,-87.9365,3.416,9.32,1111122 
DISL,ioos:station:DISL:MHPA:1,2011-12-01T06:00:00Z,30.6671,-87.9365,3.393,9.3,1111122 
DISL,ioos:station:DISL:MHPA:1,2011-12-01T06:30:00Z,30.6671,-87.9365,3.407,9.12,1111122 
DISL,ioos:station:DISL:MHPA:1,2011-12-01T07:00:00Z,30.6671,-87.9365,3.369,9.1,1111122 
DISL,ioos:station:DISL:MHPA:1,2011-12-01T07:30:00Z,30.6671,-87.9365,3.378,9.01,1111122 
DISL,ioos:station:DISL:MHPA:1,2011-12-01T08:00:00Z,30.6671,-87.9365,3.322,8.9,1111122 
DISL,ioos:station:DISL:MHPA:1,2011-12-01T08:30:00Z,30.6671,-87.9365,3.382,9.1,1111122 
DISL,ioos:station:DISL:MHPA:1,2011-12-01T09:00:00Z,30.6671,-87.9365,3.394,8.82,1111122 
DISL,ioos:station:DISL:MHPA:1,2011-12-01T09:30:00Z,30.6671,-87.9365,3.337,8.96,1111122 
DISL,ioos:station:DISL:MHPA:1,2011-12-01T10:00:00Z,30.6671,-87.9365,3.285,8.45,1111122 
DISL,ioos:station:DISL:MHPA:1,2011-12-01T10:30:00Z,30.6671,-87.9365,3.24,8.95,1111122 
DISL,ioos:station:DISL:MHPA:1,2011-12-01T11:00:00Z,30.6671,-87.9365,3.218,8.87,1111122 
DISL,ioos:station:DISL:MHPA:1,2011-12-01T11:30:00Z,30.6671,-87.9365,3.156,8.81,1111122 
DISL,ioos:station:DISL:MHPA:1,2011-12-01T12:00:00Z,30.6671,-87.9365,3.026,8.91,1111122 
DISL,ioos:station:DISL:MHPA:1,2011-12-01T12:30:00Z,30.6671,-87.9365,2.991,8.73,1111122 
DISL,ioos:station:DISL:MHPA:1,2011-12-01T13:00:00Z,30.6671,-87.9365,2.957,8.41,1111122 
DISL,ioos:station:DISL:MHPA:1,2011-12-01T13:30:00Z,30.6671,-87.9365,2.877,8.45,1111122 
DISL,ioos:station:DISL:MHPA:1,2011-12-01T14:00:00Z,30.6671,-87.9365,2.833,8.48,1111122 
DISL,ioos:station:DISL:MHPA:1,2011-12-01T14:30:00Z,30.6671,-87.9365,2.832,8.6,1111122 
DISL,ioos:station:DISL:MHPA:1,2011-12-01T15:00:00Z,30.6671,-87.9365,2.811,8.63,1111122 
DISL,ioos:station:DISL:MHPA:1,2011-12-01T15:30:00Z,30.6671,-87.9365,2.779,8.43,1111122 
DISL,ioos:station:DISL:MHPA:1,2011-12-01T16:00:00Z,30.6671,-87.9365,2.735,8.43,1111122 
DISL,ioos:station:DISL:MHPA:1,2011-12-01T16:30:00Z,30.6671,-87.9365,2.672,8.6,1111122 
DISL,ioos:station:DISL:MHPA:1,2011-12-01T17:00:00Z,30.6671,-87.9365,2.623,8.5,1111122 
DISL,ioos:station:DISL:MHPA:1,2011-12-01T17:30:00Z,30.6671,-87.9365,2.587,8.85,1111122 
DISL,ioos:station:DISL:MHPA:1,2011-12-01T18:00:00Z,30.6671,-87.9365,2.577,9.33,1111122 
DISL,ioos:station:DISL:MHPA:1,2011-12-01T18:30:00Z,30.6671,-87.9365,2.586,9.18,1111122 
DISL,ioos:station:DISL:MHPA:1,2011-12-01T19:00:00Z,30.6671,-87.9365,2.556,9.32,1111122 
DISL,ioos:station:DISL:MHPA:1,2011-12-01T19:30:00Z,30.6671,-87.9365,2.522,9.56,1111122 
DISL,ioos:station:DISL:MHPA:1,2011-12-01T20:00:00Z,30.6671,-87.9365,2.552,9.44,1111122 
DISL,ioos:station:DISL:MHPA:1,2011-12-01T20:30:00Z,30.6671,-87.9365,2.601,8.9,1111122 
DISL,ioos:station:DISL:MHPA:1,2011-12-01T21:00:00Z,30.6671,-87.9365,2.684,9.1,1111122 
DISL,ioos:station:DISL:MHPA:1,2011-12-01T21:30:00Z,30.6671,-87.9365,2.746,9.29,1111122 
DISL,ioos:station:DISL:MHPA:1,2011-12-01T22:00:00Z,30.6671,-87.9365,2.819,9.2,1111122 
DISL,ioos:station:DISL:MHPA:1,2011-12-01T22:30:00Z,30.6671,-87.9365,2.893,9.25,1111122 
DISL,ioos:station:DISL:MHPA:1,2011-12-01T23:00:00Z,30.6671,-87.9365,2.954,8.92,1111122 
DISL,ioos:station:DISL:MHPA:1,2011-12-01T23:30:00Z,30.6671,-87.9365,3.06,8.82,1111122 
DISL,ioos:station:DISL:MHPA:1,2011-12-02T00:00:00Z,30.6671,-87.9365,3.125,8.9,1111122 
DISL,ioos:station:DISL:MHPA:1,2011-12-02T00:30:00Z,30.6671,-87.9365,3.192,8.9,1111122 
DISL,ioos:station:DISL:MHPA:1,2011-12-02T01:00:00Z,30.6671,-87.9365,3.244,9.27,1111122 
DISL,ioos:station:DISL:MHPA:1,2011-12-02T01:30:00Z,30.6671,-87.9365,3.257,9.52,1111122 
DISL,ioos:station:DISL:MHPA:1,2011-12-02T02:00:00Z,30.6671,-87.9365,3.296,9.65,1111122 
DISL,ioos:station:DISL:MHPA:1,2011-12-02T02:30:00Z,30.6671,-87.9365,3.35,9.34,1111122 
DISL,ioos:station:DISL:MHPA:1,2011-12-02T03:00:00Z,30.6671,-87.9365,3.332,9.11,1111122 
DISL,ioos:station:DISL:MHPA:1,2011-12-02T03:30:00Z,30.6671,-87.9365,3.322,9.34,1111122 
DISL,ioos:station:DISL:MHPA:1,2011-12-02T04:00:00Z,30.6671,-87.9365,3.289,9.32,1111122 
DISL,ioos:station:DISL:MHPA:1,2011-12-02T04:30:00Z,30.6671,-87.9365,3.293,9.28,1111122 
DISL,ioos:station:DISL:MHPA:1,2011-12-02T05:00:00Z,30.6671,-87.9365,3.385,9.18,1111122 
DISL,ioos:station:DISL:MHPA:1,2011-12-02T05:30:00Z,30.6671,-87.9365,3.338,9.35,1111122 
DISL,ioos:station:DISL:MHPA:1,2011-12-02T06:00:00Z,30.6671,-87.9365,3.327,9.44,1111122 
DISL,ioos:station:DISL:MHPA:1,2011-12-02T06:30:00Z,30.6671,-87.9365,3.339,9.24,1111122 
DISL,ioos:station:DISL:MHPA:1,2011-12-02T07:00:00Z,30.6671,-87.9365,3.334,8.93,1111122 
DISL,ioos:station:DISL:MHPA:1,2011-12-02T07:30:00Z,30.6671,-87.9365,3.324,9.15,1111122 
DISL,ioos:station:DISL:MHPA:1,2011-12-02T08:00:00Z,30.6671,-87.9365,3.328,8.98,1111122 
DISL,ioos:station:DISL:MHPA:1,2011-12-02T08:30:00Z,30.6671,-87.9365,3.339,9.24,1111122 
DISL,ioos:station:DISL:MHPA:1,2011-12-02T09:00:00Z,30.6671,-87.9365,3.319,9.03,1111122 
DISL,ioos:station:DISL:MHPA:1,2011-12-02T09:30:00Z,30.6671,-87.9365,3.234,9.32,1111122 
DISL,ioos:station:DISL:MHPA:1,2011-12-02T10:00:00Z,30.6671,-87.9365,3.245,9.22,1111122 
DISL,ioos:station:DISL:MHPA:1,2011-12-02T10:30:00Z,30.6671,-87.9365,3.202,9.24,1111122 
DISL,ioos:station:DISL:MHPA:1,2011-12-02T11:00:00Z,30.6671,-87.9365,3.15,8.83,1111122 
DISL,ioos:station:DISL:MHPA:1,2011-12-02T11:30:00Z,30.6671,-87.9365,3.119,8.87,1111122 
DISL,ioos:station:DISL:MHPA:1,2011-12-02T12:00:00Z,30.6671,-87.9365,3.09,8.96,1111122 
DISL,ioos:station:DISL:MHPA:1,2011-12-02T12:30:00Z,30.6671,-87.9365,3.024,8.69,1111122 
DISL,ioos:station:DISL:MHPA:1,2011-12-02T13:00:00Z,30.6671,-87.9365,2.958,9.08,1111122 
DISL,ioos:station:DISL:MHPA:1,2011-12-02T13:30:00Z,30.6671,-87.9365,2.91,9.08,1111122 
DISL,ioos:station:DISL:MHPA:1,2011-12-02T14:00:00Z,30.6671,-87.9365,2.892,9.05,1111122 
DISL,ioos:station:DISL:MHPA:1,2011-12-02T14:30:00Z,30.6671,-87.9365,2.834,8.87,1111122 
DISL,ioos:station:DISL:MHPA:1,2011-12-02T15:00:00Z,30.6671,-87.9365,2.787,9.08,1111122 
DISL,ioos:station:DISL:MHPA:1,2011-12-02T15:30:00Z,30.6671,-87.9365,2.779,9.29,1111122 
DISL,ioos:station:DISL:MHPA:1,2011-12-02T16:00:00Z,30.6671,-87.9365,2.759,8.8,1111122 
DISL,ioos:station:DISL:MHPA:1,2011-12-02T16:30:00Z,30.6671,-87.9365,2.749,8.55,1111122 
DISL,ioos:station:DISL:MHPA:1,2011-12-02T17:00:00Z,30.6671,-87.9365,2.762,8.53,1111122 
DISL,ioos:station:DISL:MHPA:1,2011-12-02T17:30:00Z,30.6671,-87.9365,2.764,8.75,1111122 
DISL,ioos:station:DISL:MHPA:1,2011-12-02T18:00:00Z,30.6671,-87.9365,2.767,8.93,1111122 
DISL,ioos:station:DISL:MHPA:1,2011-12-02T18:30:00Z,30.6671,-87.9365,2.785,9.08,1111122 
DISL,ioos:station:DISL:MHPA:1,2011-12-02T19:00:00Z,30.6671,-87.9365,2.825,8.96,1111122 
DISL,ioos:station:DISL:MHPA:1,2011-12-02T19:30:00Z,30.6671,-87.9365,2.859,8.91,1111122 
DISL,ioos:station:DISL:MHPA:1,2011-12-02T20:00:00Z,30.6671,-87.9365,2.934,9.34,1111122 
DISL,ioos:station:DISL:MHPA:1,2011-12-02T20:30:00Z,30.6671,-87.9365,3.088,9.19,1111122 
DISL,ioos:station:DISL:MHPA:1,2011-12-02T21:00:00Z,30.6671,-87.9365,3.191,9.11,1111122 
DISL,ioos:station:DISL:MHPA:1,2011-12-02T21:30:00Z,30.6671,-87.9365,3.269,9.28,1111122 
DISL,ioos:station:DISL:MHPA:1,2011-12-02T22:00:00Z,30.6671,-87.9365,3.324,9.25,1111122 
DISL,ioos:station:DISL:MHPA:1,2011-12-02T22:30:00Z,30.6671,-87.9365,3.39,8.91,1111122 
DISL,ioos:station:DISL:MHPA:1,2011-12-02T23:00:00Z,30.6671,-87.9365,3.413,8.78,1111122 
DISL,ioos:station:DISL:MHPA:1,2011-12-02T23:30:00Z,30.6671,-87.9365,3.388,8.75,1111122 
DISL,ioos:station:DISL:MHPA:1,2011-12-03T00:00:00Z,30.6671,-87.9365,3.437,8.86,1111122 
DISL,ioos:station:DISL:MHPA:1,2011-12-03T00:30:00Z,30.6671,-87.9365,3.478,8.9,1111122 
DISL,ioos:station:DISL:MHPA:1,2011-12-03T01:00:00Z,30.6671,-87.9365,3.502,8.97,1111122 
DISL,ioos:station:DISL:MHPA:1,2011-12-03T01:30:00Z,30.6671,-87.9365,3.526,9.11,1111122 
DISL,ioos:station:DISL:MHPA:1,2011-12-03T02:00:00Z,30.6671,-87.9365,3.525,9.01,1111122 
DISL,ioos:station:DISL:MHPA:1,2011-12-03T02:30:00Z,30.6671,-87.9365,3.504,9.07,1111122 
DISL,ioos:station:DISL:MHPA:1,2011-12-03T03:00:00Z,30.6671,-87.9365,3.534,8.89,1111122 
DISL,ioos:station:DISL:MHPA:1,2011-12-03T03:30:00Z,30.6671,-87.9365,3.526,8.73,1111122 
DISL,ioos:station:DISL:MHPA:1,2011-12-03T04:00:00Z,30.6671,-87.9365,3.473,8.68,1111122 
DISL,ioos:station:DISL:MHPA:1,2011-12-03T04:30:00Z,30.6671,-87.9365,3.428,8.6,1111122 
DISL,ioos:station:DISL:MHPA:1,2011-12-03T05:00:00Z,30.6671,-87.9365,3.413,8.65,1111122 
DISL,ioos:station:DISL:MHPA:1,2011-12-03T05:30:00Z,30.6671,-87.9365,3.375,8.98,1111122 
DISL,ioos:station:DISL:MHPA:1,2011-12-03T06:00:00Z,30.6671,-87.9365,3.301,8.87,1111122 
DISL,ioos:station:DISL:MHPA:1,2011-12-03T06:30:00Z,30.6671,-87.9365,3.245,8.71,1111122 
DISL,ioos:station:DISL:MHPA:1,2011-12-03T07:00:00Z,30.6671,-87.9365,3.179,8.61,1111122 
DISL,ioos:station:DISL:MHPA:1,2011-12-03T07:30:00Z,30.6671,-87.9365,3.091,8.54,1111122 
DISL,ioos:station:DISL:MHPA:1,2011-12-03T08:00:00Z,30.6671,-87.9365,3.071,8.49,1111122 
DISL,ioos:station:DISL:MHPA:1,2011-12-03T08:30:00Z,30.6671,-87.9365,3.058,8.37,1111122 
DISL,ioos:station:DISL:MHPA:1,2011-12-03T09:00:00Z,30.6671,-87.9365,2.997,8.13,1111122 
DISL,ioos:station:DISL:MHPA:1,2011-12-03T09:30:00Z,30.6671,-87.9365,2.988,8.33,1111122 
DISL,ioos:station:DISL:MHPA:1,2011-12-03T10:00:00Z,30.6671,-87.9365,2.943,8.44,1111122 
DISL,ioos:station:DISL:MHPA:1,2011-12-03T10:30:00Z,30.6671,-87.9365,2.895,8.4,1111122 
DISL,ioos:station:DISL:MHPA:1,2011-12-03T11:00:00Z,30.6671,-87.9365,2.858,8.4,1111122 
DISL,ioos:station:DISL:MHPA:1,2011-12-03T11:30:00Z,30.6671,-87.9365,2.866,8.48,1111122 
DISL,ioos:station:DISL:MHPA:1,2011-12-03T12:00:00Z,30.6671,-87.9365,2.881,8.73,1111122 
DISL,ioos:station:DISL:MHPA:1,2011-12-03T12:30:00Z,30.6671,-87.9365,2.896,8.58,1111122 
DISL,ioos:station:DISL:MHPA:1,2011-12-03T13:00:00Z,30.6671,-87.9365,2.935,8.43,1111122 
DISL,ioos:station:DISL:MHPA:1,2011-12-03T13:30:00Z,30.6671,-87.9365,2.983,8.59,1111122 
DISL,ioos:station:DISL:MHPA:1,2011-12-03T14:00:00Z,30.6671,-87.9365,2.973,8.5,1111122 
DISL,ioos:station:DISL:MHPA:1,2011-12-03T14:30:00Z,30.6671,-87.9365,2.993,8.54,1111122 
DISL,ioos:station:DISL:MHPA:1,2011-12-03T15:00:00Z,30.6671,-87.9365,3.06,8.62,1111122 
DISL,ioos:station:DISL:MHPA:1,2011-12-03T15:30:00Z,30.6671,-87.9365,3.081,8.59,1111122 
DISL,ioos:station:DISL:MHPA:1,2011-12-03T16:00:00Z,30.6671,-87.9365,3.077,8.78,1111122 
DISL,ioos:station:DISL:MHPA:1,2011-12-03T16:30:00Z,30.6671,-87.9365,3.113,8.85,1111122 
DISL,ioos:station:DISL:MHPA:1,2011-12-03T17:00:00Z,30.6671,-87.9365,3.19,8.99,1111122 
DISL,ioos:station:DISL:MHPA:1,2011-12-03T17:30:00Z,30.6671,-87.9365,3.232,9.05,1111122 
DISL,ioos:station:DISL:MHPA:1,2011-12-03T18:00:00Z,30.6671,-87.9365,3.309,9.33,1111122 
DISL,ioos:station:DISL:MHPA:1,2011-12-03T18:30:00Z,30.6671,-87.9365,3.406,9.42,1111122 
DISL,ioos:station:DISL:MHPA:1,2011-12-03T19:00:00Z,30.6671,-87.9365,3.502,9.29,1111122 
DISL,ioos:station:DISL:MHPA:1,2011-12-03T19:30:00Z,30.6671,-87.9365,3.558,9.49,1111122 
DISL,ioos:station:DISL:MHPA:1,2011-12-03T20:00:00Z,30.6671,-87.9365,3.611,9.6,1111122 
DISL,ioos:station:DISL:MHPA:1,2011-12-03T20:30:00Z,30.6671,-87.9365,3.635,9.66,1111122 
DISL,ioos:station:DISL:MHPA:1,2011-12-03T21:00:00Z,30.6671,-87.9365,3.655,9.65,1111122 
DISL,ioos:station:DISL:MHPA:1,2011-12-03T21:30:00Z,30.6671,-87.9365,3.661,9.56,1111122 
DISL,ioos:station:DISL:MHPA:1,2011-12-03T22:00:00Z,30.6671,-87.9365,3.717,9.63,1111122 
DISL,ioos:station:DISL:MHPA:1,2011-12-03T22:30:00Z,30.6671,-87.9365,3.803,9.56,1111122 
DISL,ioos:station:DISL:MHPA:1,2011-12-03T23:00:00Z,30.6671,-87.9365,3.851,9.4,1111122 
DISL,ioos:station:DISL:MHPA:1,2011-12-03T23:30:00Z,30.6671,-87.9365,3.872,9.72,1111122 
DISL,ioos:station:DISL:MHPA:1,2011-12-04T00:00:00Z,30.6671,-87.9365,3.947,9.66,1111122 
DISL,ioos:station:DISL:MHPA:1,2011-12-04T00:30:00Z,30.6671,-87.9365,3.99,9.71,1111122 
DISL,ioos:station:DISL:MHPA:1,2011-12-04T01:00:00Z,30.6671,-87.9365,3.928,9.72,1111122 
DISL,ioos:station:DISL:MHPA:1,2011-12-04T01:30:00Z,30.6671,-87.9365,3.92,9.58,1111122 
DISL,ioos:station:DISL:MHPA:1,2011-12-04T02:00:00Z,30.6671,-87.9365,3.964,9.63,1111122 
DISL,ioos:station:DISL:MHPA:1,2011-12-04T02:30:00Z,30.6671,-87.9365,4.012,9.28,1111122 
DISL,ioos:station:DISL:MHPA:1,2011-12-04T03:00:00Z,30.6671,-87.9365,4.089,9.54,1111122 
DISL,ioos:station:DISL:MHPA:1,2011-12-04T03:30:00Z,30.6671,-87.9365,4.048,9.38,1111122 
DISL,ioos:station:DISL:MHPA:1,2011-12-04T04:00:00Z,30.6671,-87.9365,4.029,9.4,1111122 
DISL,ioos:station:DISL:MHPA:1,2011-12-04T04:30:00Z,30.6671,-87.9365,4.009,9.52,1111122 
DISL,ioos:station:DISL:MHPA:1,2011-12-04T05:00:00Z,30.6671,-87.9365,3.961,9.53,1111122 
DISL,ioos:station:DISL:MHPA:1,2011-12-04T05:30:00Z,30.6671,-87.9365,3.867,9.23,1111122 
DISL,ioos:station:DISL:MHPA:1,2011-12-04T06:00:00Z,30.6671,-87.9365,3.818,9.2,1111122 
DISL,ioos:station:DISL:MHPA:1,2011-12-04T06:30:00Z,30.6671,-87.9365,3.816,9.04,1111122 
DISL,ioos:station:DISL:MHPA:1,2011-12-04T07:00:00Z,30.6671,-87.9365,3.775,9.13,1111122 
DISL,ioos:station:DISL:MHPA:1,2011-12-04T07:30:00Z,30.6671,-87.9365,3.71,9.19,1111122 
DISL,ioos:station:DISL:MHPA:1,2011-12-04T08:00:00Z,30.6671,-87.9365,3.68,9.05,1111122 
DISL,ioos:station:DISL:MHPA:1,2011-12-04T08:30:00Z,30.6671,-87.9365,3.654,9.25,1111122 
DISL,ioos:station:DISL:MHPA:1,2011-12-04T09:00:00Z,30.6671,-87.9365,3.619,9.21,1111122 
DISL,ioos:station:DISL:MHPA:1,2011-12-04T09:30:00Z,30.6671,-87.9365,3.541,9.16,1111122 
DISL,ioos:station:DISL:MHPA:1,2011-12-04T10:00:00Z,30.6671,-87.9365,3.507,9.11,1111122 
DISL,ioos:station:DISL:MHPA:1,2011-12-04T10:30:00Z,30.6671,-87.9365,3.519,9.2,1111122 
DISL,ioos:station:DISL:MHPA:1,2011-12-04T11:00:00Z,30.6671,-87.9365,3.452,8.97,1111122 
DISL,ioos:station:DISL:MHPA:1,2011-12-04T11:30:00Z,30.6671,-87.9365,3.4,8.88,1111122 
DISL,ioos:station:DISL:MHPA:1,2011-12-04T12:00:00Z,30.6671,-87.9365,3.404,9.07,1111122 
DISL,ioos:station:DISL:MHPA:1,2011-12-04T12:30:00Z,30.6671,-87.9365,3.374,9.04,1111122 
DISL,ioos:station:DISL:MHPA:1,2011-12-04T13:00:00Z,30.6671,-87.9365,3.333,8.99,1111122 
DISL,ioos:station:DISL:MHPA:1,2011-12-04T13:30:00Z,30.6671,-87.9365,3.394,9.32,1111122 
DISL,ioos:station:DISL:MHPA:1,2011-12-04T14:00:00Z,30.6671,-87.9365,3.514,9.17,1111122 
DISL,ioos:station:DISL:MHPA:1,2011-12-04T14:30:00Z,30.6671,-87.9365,3.49,9.41,1111122 
DISL,ioos:station:DISL:MHPA:1,2011-12-04T15:00:00Z,30.6671,-87.9365,3.493,9.54,1111122 
DISL,ioos:station:DISL:MHPA:1,2011-12-04T15:30:00Z,30.6671,-87.9365,3.639,9.62,1111122 
DISL,ioos:station:DISL:MHPA:1,2011-12-04T16:00:00Z,30.6671,-87.9365,3.787,9.59,1111122 
DISL,ioos:station:DISL:MHPA:1,2011-12-04T16:30:00Z,30.6671,-87.9365,3.687,9.37,1111122 
DISL,ioos:station:DISL:MHPA:1,2011-12-04T17:00:00Z,30.6671,-87.9365,3.695,9.58,1111122 
DISL,ioos:station:DISL:MHPA:1,2011-12-04T17:30:00Z,30.6671,-87.9365,3.836,9.66,1111122 
DISL,ioos:station:DISL:MHPA:1,2011-12-04T18:00:00Z,30.6671,-87.9365,3.938,9.57,1111122 
DISL,ioos:station:DISL:MHPA:1,2011-12-04T18:30:00Z,30.6671,-87.9365,3.956,9.6,1111122 
DISL,ioos:station:DISL:MHPA:1,2011-12-04T19:00:00Z,30.6671,-87.9365,4.05,9.6,1111122 
DISL,ioos:station:DISL:MHPA:1,2011-12-04T19:30:00Z,30.6671,-87.9365,4.126,9.65,1111122 
DISL,ioos:station:DISL:MHPA:1,2011-12-04T20:00:00Z,30.6671,-87.9365,4.225,9.63,1111122 
DISL,ioos:station:DISL:MHPA:1,2011-12-04T20:30:00Z,30.6671,-87.9365,4.225,9.64,1111122 
DISL,ioos:station:DISL:MHPA:1,2011-12-04T21:00:00Z,30.6671,-87.9365,4.221,9.65,1111122 
DISL,ioos:station:DISL:MHPA:1,2011-12-04T21:30:00Z,30.6671,-87.9365,4.319,9.68,1111122 
DISL,ioos:station:DISL:MHPA:1,2011-12-04T22:00:00Z,30.6671,-87.9365,4.374,9.69,1111122 
DISL,ioos:station:DISL:MHPA:1,2011-12-04T22:30:00Z,30.6671,-87.9365,4.403,9.67,1111122 
DISL,ioos:station:DISL:MHPA:1,2011-12-04T23:00:00Z,30.6671,-87.9365,4.388,9.64,1111122 
DISL,ioos:station:DISL:MHPA:1,2011-12-04T23:30:00Z,30.6671,-87.9365,4.455,9.63,1111122 
DISL,ioos:station:DISL:MHPA:1,2011-12-05T00:00:00Z,30.6671,-87.9365,4.459,9.65,1111122 
DISL,ioos:station:DISL:MHPA:1,2011-12-05T00:30:00Z,30.6671,-87.9365,4.506,9.67,1111122 
DISL,ioos:station:DISL:MHPA:1,2011-12-05T01:00:00Z,30.6671,-87.9365,4.514,9.56,1111122 
DISL,ioos:station:DISL:MHPA:1,2011-12-05T01:30:00Z,30.6671,-87.9365,4.488,9.48,1111122 
DISL,ioos:station:DISL:MHPA:1,2011-12-05T02:00:00Z,30.6671,-87.9365,4.491,9.59,1111122 
DISL,ioos:station:DISL:MHPA:1,2011-12-05T02:30:00Z,30.6671,-87.9365,4.51,9.56,1111122 
DISL,ioos:station:DISL:MHPA:1,2011-12-05T03:00:00Z,30.6671,-87.9365,4.506,9.52,1111122 
DISL,ioos:station:DISL:MHPA:1,2011-12-05T03:30:00Z,30.6671,-87.9365,4.509,9.53,1111122 
DISL,ioos:station:DISL:MHPA:1,2011-12-05T04:00:00Z,30.6671,-87.9365,4.505,9.48,1111122 
DISL,ioos:station:DISL:MHPA:1,2011-12-05T04:30:00Z,30.6671,-87.9365,4.451,9.5,1111122 
DISL,ioos:station:DISL:MHPA:1,2011-12-05T05:00:00Z,30.6671,-87.9365,4.414,9.5,1111122 
DISL,ioos:station:DISL:MHPA:1,2011-12-05T05:30:00Z,30.6671,-87.9365,4.37,9.45,1111122 
DISL,ioos:station:DISL:MHPA:1,2011-12-05T06:00:00Z,30.6671,-87.9365,4.321,9.25,1111122 
DISL,ioos:station:DISL:MHPA:1,2011-12-05T06:30:00Z,30.6671,-87.9365,4.194,9.32,1111122 
DISL,ioos:station:DISL:MHPA:1,2011-12-05T07:00:00Z,30.6671,-87.9365,4.132,9.39,1111122 
DISL,ioos:station:DISL:MHPA:1,2011-12-05T07:30:00Z,30.6671,-87.9365,4.015,9.25,1111122 
DISL,ioos:station:DISL:MHPA:1,2011-12-05T08:00:00Z,30.6671,-87.9365,3.926,9.17,1111122 
DISL,ioos:station:DISL:MHPA:1,2011-12-05T08:30:00Z,30.6671,-87.9365,3.881,9.3,1111122 
DISL,ioos:station:DISL:MHPA:1,2011-12-05T09:00:00Z,30.6671,-87.9365,3.818,9.25,1111122 
DISL,ioos:station:DISL:MHPA:1,2011-12-05T09:30:00Z,30.6671,-87.9365,3.768,8.97,1111122 
DISL,ioos:station:DISL:MHPA:1,2011-12-05T10:00:00Z,30.6671,-87.9365,3.743,9.16,1111122 
DISL,ioos:station:DISL:MHPA:1,2011-12-05T10:30:00Z,30.6671,-87.9365,3.647,8.93,1111122 
DISL,ioos:station:DISL:MHPA:1,2011-12-05T11:00:00Z,30.6671,-87.9365,3.624,8.98,1111122 
DISL,ioos:station:DISL:MHPA:1,2011-12-05T11:30:00Z,30.6671,-87.9365,3.674,9.15,1111122 
DISL,ioos:station:DISL:MHPA:1,2011-12-05T12:00:00Z,30.6671,-87.9365,3.62,9.07,1111122 
DISL,ioos:station:DISL:MHPA:1,2011-12-05T12:30:00Z,30.6671,-87.9365,3.598,8.99,1111122 
DISL,ioos:station:DISL:MHPA:1,2011-12-05T13:00:00Z,30.6671,-87.9365,3.56,8.94,1111122 
DISL,ioos:station:DISL:MHPA:1,2011-12-05T13:30:00Z,30.6671,-87.9365,3.608,9.01,1111122 
DISL,ioos:station:DISL:MHPA:1,2011-12-05T14:00:00Z,30.6671,-87.9365,3.619,9.06,1111122 
DISL,ioos:station:DISL:MHPA:1,2011-12-05T14:30:00Z,30.6671,-87.9365,3.711,9.09,1111122 
DISL,ioos:station:DISL:MHPA:1,2011-12-05T15:00:00Z,30.6671,-87.9365,3.835,9.22,1111122 
DISL,ioos:station:DISL:MHPA:1,2011-12-05T15:30:00Z,30.6671,-87.9365,3.901,9.27,1111122 
DISL,ioos:station:DISL:MHPA:1,2011-12-05T16:00:00Z,30.6671,-87.9365,3.999,8.92,1111122 
DISL,ioos:station:DISL:MHPA:1,2011-12-05T16:30:00Z,30.6671,-87.9365,4.15,8.99,1111122 
DISL,ioos:station:DISL:MHPA:1,2011-12-05T17:00:00Z,30.6671,-87.9365,4.221,9.04,1111122 
DISL,ioos:station:DISL:MHPA:1,2011-12-05T17:30:00Z,30.6671,-87.9365,4.262,9.22,1111122 
DISL,ioos:station:DISL:MHPA:1,2011-12-05T18:00:00Z,30.6671,-87.9365,4.437,9.19,1111122 
DISL,ioos:station:DISL:MHPA:1,2011-12-05T18:30:00Z,30.6671,-87.9365,4.593,9.13,1111122 
DISL,ioos:station:DISL:MHPA:1,2011-12-05T19:00:00Z,30.6671,-87.9365,4.601,9.1,1111122 
DISL,ioos:station:DISL:MHPA:1,2011-12-05T19:30:00Z,30.6671,-87.9365,4.748,9.21,1111122 
DISL,ioos:station:DISL:MHPA:1,2011-12-05T20:00:00Z,30.6671,-87.9365,4.766,9.34,1111122 
DISL,ioos:station:DISL:MHPA:1,2011-12-05T20:30:00Z,30.6671,-87.9365,4.925,9.25,1111122 
DISL,ioos:station:DISL:MHPA:1,2011-12-05T21:00:00Z,30.6671,-87.9365,4.692,9.22,1111122 
DISL,ioos:station:DISL:MHPA:1,2011-12-05T21:30:00Z,30.6671,-87.9365,4.567,9.13,1111122 
DISL,ioos:station:DISL:MHPA:1,2011-12-05T22:00:00Z,30.6671,-87.9365,4.744,9.38,1111122 
DISL,ioos:station:DISL:MHPA:1,2011-12-05T22:30:00Z,30.6671,-87.9365,4.842,9.31,1111122 
DISL,ioos:station:DISL:MHPA:1,2011-12-05T23:00:00Z,30.6671,-87.9365,4.84,9.32,1111122 
DISL,ioos:station:DISL:MHPA:1,2011-12-05T23:30:00Z,30.6671,-87.9365,4.885,9.33,1111122 
DISL,ioos:station:DISL:MHPA:1,2011-12-06T00:00:00Z,30.6671,-87.9365,4.89,9.26,1111122 
DISL,ioos:station:DISL:MHPA:1,2011-12-06T00:30:00Z,30.6671,-87.9365,4.905,9.0,1111122 
DISL,ioos:station:DISL:MHPA:1,2011-12-06T01:00:00Z,30.6671,-87.9365,4.875,9.16,1111122 
DISL,ioos:station:DISL:MHPA:1,2011-12-06T01:30:00Z,30.6671,-87.9365,4.835,9.13,1111122 
DISL,ioos:station:DISL:MHPA:1,2011-12-06T02:00:00Z,30.6671,-87.9365,4.749,9.08,1111122 
DISL,ioos:station:DISL:MHPA:1,2011-12-06T02:30:00Z,30.6671,-87.9365,4.727,9.08,1111122 
DISL,ioos:station:DISL:MHPA:1,2011-12-06T03:00:00Z,30.6671,-87.9365,4.682,9.1,1111122 
DISL,ioos:station:DISL:MHPA:1,2011-12-06T03:30:00Z,30.6671,-87.9365,4.54,9.1,1111122 
DISL,ioos:station:DISL:MHPA:1,2011-12-06T04:00:00Z,30.6671,-87.9365,4.504,9.04,1111122 
DISL,ioos:station:DISL:MHPA:1,2011-12-06T04:30:00Z,30.6671,-87.9365,4.439,8.95,1111122 
DISL,ioos:station:DISL:MHPA:1,2011-12-06T05:00:00Z,30.6671,-87.9365,4.377,8.99,1111122 
DISL,ioos:station:DISL:MHPA:1,2011-12-06T05:30:00Z,30.6671,-87.9365,4.284,8.8,1111122 
DISL,ioos:station:DISL:MHPA:1,2011-12-06T06:00:00Z,30.6671,-87.9365,4.228,8.93,1111122 
DISL,ioos:station:DISL:MHPA:1,2011-12-06T06:30:00Z,30.6671,-87.9365,4.151,8.85,1111122 
DISL,ioos:station:DISL:MHPA:1,2011-12-06T07:00:00Z,30.6671,-87.9365,4.068,8.81,1111122 
DISL,ioos:station:DISL:MHPA:1,2011-12-06T07:30:00Z,30.6671,-87.9365,3.98,8.77,1111122 
DISL,ioos:station:DISL:MHPA:1,2011-12-06T08:00:00Z,30.6671,-87.9365,3.884,8.78,1111122 
DISL,ioos:station:DISL:MHPA:1,2011-12-06T08:30:00Z,30.6671,-87.9365,3.779,8.61,1111122 
DISL,ioos:station:DISL:MHPA:1,2011-12-06T09:00:00Z,30.6671,-87.9365,3.657,8.42,1111122 
DISL,ioos:station:DISL:MHPA:1,2011-12-06T09:30:00Z,30.6671,-87.9365,3.575,8.6,1111122 
DISL,ioos:station:DISL:MHPA:1,2011-12-06T10:00:00Z,30.6671,-87.9365,3.495,8.48,1111122 
DISL,ioos:station:DISL:MHPA:1,2011-12-06T10:30:00Z,30.6671,-87.9365,3.429,8.44,1111122 
DISL,ioos:station:DISL:MHPA:1,2011-12-06T11:00:00Z,30.6671,-87.9365,3.379,8.61,1111122 
DISL,ioos:station:DISL:MHPA:1,2011-12-06T11:30:00Z,30.6671,-87.9365,3.31,8.39,1111122 
DISL,ioos:station:DISL:MHPA:1,2011-12-06T12:00:00Z,30.6671,-87.9365,3.25,8.26,1111122 
DISL,ioos:station:DISL:MHPA:1,2011-12-06T12:30:00Z,30.6671,-87.9365,3.21,8.2,1111122 
DISL,ioos:station:DISL:MHPA:1,2011-12-06T13:00:00Z,30.6671,-87.9365,3.209,8.4,1111122 
DISL,ioos:station:DISL:MHPA:1,2011-12-06T13:30:00Z,30.6671,-87.9365,3.176,8.27,1111122 
DISL,ioos:station:DISL:MHPA:1,2011-12-06T14:00:00Z,30.6671,-87.9365,3.165,8.2,1111122 
DISL,ioos:station:DISL:MHPA:1,2011-12-06T14:30:00Z,30.6671,-87.9365,3.121,8.25,1111122 
DISL,ioos:station:DISL:MHPA:1,2011-12-06T15:00:00Z,30.6671,-87.9365,3.111,8.46,1111122 
DISL,ioos:station:DISL:MHPA:1,2011-12-06T15:30:00Z,30.6671,-87.9365,3.138,8.34,1111122 